Tracking 35280 objects as of 7-Sep-2026
HD Live streaming from Space Station
objects crossing your sky now

AC1-002

Track AC1-002 now!
10-day predictions


NORAD ID: 66745
Int'l Code: 2025-276CH
Launch date: November 28, 2025
Source: United Kingdom (UK)
Launch site: AIR FORCE WESTERN TEST RANGE (AFWTR)
Your satellite tracking list
Your tracking list is empty




NASA's NSSDC Master Catalog

Two Line Element Set (TLE):
1 66745U 25276CH  26249.73629003  .00001260  00000-0  63902-4 0  9996
2 66745  97.4130 321.5243 0003716  77.0841 283.0808 15.18732182 42786
Source of the keplerian elements: AFSPC